Weather History for KDIK - October, 2010

Change the Weather History Date:

Tuesday, October 26, 2010

  Actual Average Record
Temperature  
Mean Temperature 31 °F 40 °F  
Max Temperature 35 °F 52 °F 76 °F (1955)
Min Temperature 27 °F 28 °F -11 °F (1919)
Degree Days  
Heating Degree Days 34 25  
Month to date heating degree days 347 521  
Since 1 July heating degree days 688 875  
Cooling Degree Days 0 0  
Month to date cooling degree days 1 0  
Year to date cooling degree days 302 418  
Moisture  
Dew Point 26 °F    
Average Humidity 81    
Maximum Humidity 92    
Minimum Humidity 70    
Precipitation  
Precipitation T in 0.03 in 1.31 in (1989)
Month to date precipitation 0.30 1.08  
Year to date precipitation 13.62 14.84  
Sea Level Pressure  
Sea Level Pressure 29.27 in    
Wind  
Wind Speed 32 mph (WNW)    
Max Wind Speed 43 mph    
Max Gust Speed 58 mph    
Visibility 6 miles    
Events Snow    
T = Trace of Precipitation, MM = Missing Value Source: NWS Daily Summary

Daily Weather History Graph

Daily Weather History Graph

Search for Another Location

Airport or City:

Trip Planner

Search our weather history database for the weather conditions in past years. The results will help you decide how hot, cold, wet, or windy it might be!

Date:

Astronomy

Oct. 26, 2010 Rise Set
Actual Time 7:24 AM MDT 5:44 PM MDT
Civil Twilight 6:53 AM MDT 6:16 PM MDT
Nautical Twilight 6:17 AM MDT 6:51 PM MDT
Astronomical Twilight 5:42 AM MDT 7:26 PM MDT
Moon 7:53 PM MDT (10/26) 11:23 AM MDT (10/26)
Length of Visible Light 11h 22m
Length of Day
10h 20m
Waning Gibbous, 87% of the Moon is Illuminated
Oct 26
Waning Gibbous
Oct 30
Last Quarter
Nov 5
New
Nov 13
First Quarter
Nov 21
Full

Hourly Weather History & Observations

Time (MDT) Temp. Windchill Dew Point Humidity Pressure Visibility Wind Dir Wind Speed Gust Speed Precip Events Conditions
12:56 AM 35.1 °F 21.4 °F 28.0 °F 76% 29.25 in 10.0 mi NW 32.2 mph 41.4 mph N/A   Overcast
1:56 AM 34.0 °F 21.5 °F 27.0 °F 75% 29.26 in 10.0 mi WNW 24.2 mph 36.8 mph N/A   Overcast
2:56 AM 34.0 °F 20.3 °F 27.0 °F 75% 29.25 in 10.0 mi WNW 29.9 mph 41.4 mph N/A   Overcast
3:56 AM 34.0 °F 20.1 °F 27.0 °F 75% 29.25 in 10.0 mi WNW 31.1 mph 43.7 mph N/A   Overcast
4:56 AM 33.1 °F 18.9 °F 27.0 °F 78% 29.25 in 10.0 mi WNW 31.1 mph 40.3 mph N/A   Overcast
5:47 AM 32.0 °F 17.2 °F 28.4 °F 87% 29.20 in 9.0 mi WNW 32.2 mph 46.0 mph 0.00 in   Overcast
5:56 AM 32.0 °F 18.1 °F 28.0 °F 85% 29.24 in 7.0 mi WNW 27.6 mph 36.8 mph 0.00 in Snow Light Snow
6:56 AM 30.9 °F 16.4 °F 28.0 °F 89% 29.24 in 6.0 mi WNW 28.8 mph 42.6 mph 0.00 in Snow Light Snow
7:56 AM 32.0 °F 17.6 °F 28.0 °F 85% 29.23 in 4.0 mi WNW 29.9 mph 44.9 mph 0.00 in Snow Light Snow
8:56 AM 32.0 °F 17.4 °F 27.0 °F 82% 29.25 in 6.0 mi WNW 31.1 mph 44.9 mph 0.00 in Snow Light Snow
9:56 AM 33.1 °F 19.6 °F 27.0 °F 78% 29.25 in 8.0 mi WNW 27.6 mph 43.7 mph 0.00 in Snow Light Snow
10:56 AM 33.1 °F 19.8 °F 27.0 °F 78% 29.25 in 10.0 mi WNW 26.5 mph 43.7 mph 0.00 in   Overcast
11:56 AM 33.1 °F 19.1 °F 27.0 °F 78% 29.24 in 10.0 mi WNW 29.9 mph 48.3 mph N/A   Overcast
12:56 PM 33.1 °F 18.4 °F 26.1 °F 75% 29.24 in 10.0 mi NW 33.4 mph 50.6 mph N/A   Overcast
1:56 PM 35.1 °F 20.8 °F 26.1 °F 70% 29.24 in 9.0 mi WNW 35.7 mph 51.8 mph 0.00 in   Overcast
2:56 PM 34.0 °F 19.5 °F 25.0 °F 70% 29.25 in 9.0 mi WNW 34.5 mph 50.6 mph 0.00 in Snow Light Snow
3:56 PM 34.0 °F 18.9 °F 26.1 °F 73% 29.27 in 4.0 mi WNW 38.0 mph 51.8 mph 0.00 in Snow Light Snow
4:16 PM 33.8 °F 18.5 °F 26.6 °F 75% 29.22 in 6.0 mi WNW 39.1 mph 49.5 mph 0.00 in Snow Light Snow
4:56 PM 32.0 °F 17.9 °F 27.0 °F 82% 29.29 in 3.0 mi WNW 28.8 mph 49.5 mph 0.00 in Snow Light Snow
5:07 PM 32.0 °F 17.6 °F 26.6 °F 80% 29.23 in 5.0 mi WNW 29.9 mph 46.0 mph 0.00 in Snow Light Snow
5:19 PM 32.0 °F 16.0 °F 26.6 °F 80% 29.23 in 3.0 mi WNW 39.1 mph 52.9 mph 0.00 in Snow Light Snow
5:54 PM 30.2 °F 15.4 °F 26.6 °F 86% 29.24 in 1.8 mi WNW 28.8 mph 39.1 mph 0.00 in Snow Light Snow
5:55 PM 30.9 °F 16.4 °F 28.0 °F 89% 29.30 in 1.8 mi WNW 28.8 mph 39.1 mph 0.00 in Snow Light Snow
6:05 PM 30.2 °F 15.7 °F 26.6 °F 86% 29.25 in 2.5 mi WNW 27.6 mph 42.6 mph 0.00 in Snow Light Snow
6:17 PM 30.2 °F 14.1 °F 26.6 °F 86% 29.25 in 4.0 mi WNW 35.7 mph 49.5 mph 0.00 in Snow Light Snow
6:56 PM 30.0 °F 14.5 °F 26.1 °F 85% 29.33 in 2.5 mi WNW 32.2 mph 47.2 mph 0.00 in Snow Light Snow
7:56 PM 28.9 °F 12.3 °F 25.0 °F 85% 29.33 in 2.0 mi WNW 35.7 mph 49.5 mph 0.00 in Snow Light Snow
8:35 PM 28.4 °F 11.8 °F 24.8 °F 86% 29.26 in 3.0 mi WNW 34.5 mph 57.5 mph 0.00 in Snow Light Snow
8:56 PM 28.0 °F 11.5 °F 24.1 °F 85% 29.34 in 4.0 mi WNW 33.4 mph 46.0 mph 0.00 in Snow Light Snow
9:56 PM 28.0 °F 11.5 °F 24.1 °F 85% 29.34 in 4.0 mi WNW 33.4 mph 47.2 mph 0.00 in Snow Light Snow
10:23 PM 28.4 °F 12.5 °F 24.8 °F 86% 29.27 in 6.0 mi WNW 31.1 mph 43.7 mph 0.00 in Snow Light Snow
10:56 PM 28.0 °F 11.1 °F 23.0 °F 81% 29.34 in 5.0 mi WNW 35.7 mph 47.2 mph 0.00 in Snow Light Snow
11:07 PM 28.4 °F 11.8 °F 23.0 °F 80% 29.27 in 3.0 mi WNW 34.5 mph 49.5 mph 0.00 in Snow Light Snow
11:29 PM 28.4 °F 12.0 °F 24.8 °F 86% 29.28 in 2.5 mi WNW 33.4 mph 47.2 mph 0.00 in Snow Light Snow
11:52 PM 26.6 °F 9.1 °F 24.8 °F 93% 29.28 in 1.8 mi WNW 35.7 mph 46.0 mph 0.00 in Snow Light Snow
11:56 PM 27.0 °F 9.8 °F 24.1 °F 89% 29.35 in 1.5 mi WNW 34.5 mph 48.3 mph 0.00 in Snow Light Snow